カタログに戻る

ONEWEB-0440

運用中通信PO
NORAD 50503·PAYLOAD·🇬🇧 United Kingdom

打ち上げ Dec 27, 2021 から Baikonur Cosmodrome

Loading…

次のパス (今後24時間)

TLE

最新Source: CelesTrak SupGP

元期: Sep 14, 2026, 23:26 UTC

1 50503C 21132AL  26257.97653196  .00001566  00000+0  39773-2 0  2575
2 50503  87.9161 317.6176 0002218  93.7845 355.2310 13.18683442    17

AllMySatでONEWEB-0440をリアルタイム追跡

Download on the App Store